Location: College Rock
(37.2713°N, 119.1740°W)
Time: 13:35:13
(UTC+00:00)

Meteor PRIRODA - Pass Details

Date: 29 October 2020
Orbit: 491 x 509 km, 97.6° (Epoch: 01 December)

Event Time Altitude Azimuth Distance (km) Brightness Sun altitude
Rises 13:11:18 0° 11° (NNE) 2,586 7.3 -14.0°
Reaches altitude 10° 13:13:23 10° 12° (NNE) 1,702 6.4 -13.6°
Maximum altitude 13:17:03 90° 349° (N) 504 3.6 -12.8°
Drops below altitude 10° 13:20:43 10° 193° (SSW) 1,699 6.3 -12.1°
Sets 13:22:47 0° 193° (SSW) 2,581 7.2 -11.7°
